Regional Weather Roundup
Issued by NWS Burlington, VT

Home | Current Version | Previous Version | Text Only | Print | Product List | Glossary On
Versions: 1 2 3 4 5 6 7 8 9 10 11 12 13 14 15 16 17 18 19 20 21 22 23 24 25 26 27 28 29 30 31 32 33 34 35 36 37 38 39 40 41 42 43 44 45 46 47 48 49 50
000
ASUS41 KBTV 200430
RWRBTV
VERMONT REGIONAL WEATHER ROUNDUP
NATIONAL WEATHER SERVICE BURLINGTON VT
1100 PM EST SUN NOV 19 2017

NOTE: "FAIR" INDICATES FEW OR NO CLOUDS BELOW 12,000 FEET WITH NO
SIGNIFICANT WEATHER AND/OR OBSTRUCTIONS TO VISIBILITY.

* THESE REPORTS ARE NOT UNDER NWS QUALITY CONTROL AND/OR DO NOT
  REPORT WEATHER SUCH AS PRECIPITATION AND FOG.

VTZ001>019-200500-
_____VERMONT_____


CITY           SKY/WX    TMP DP  RH WIND       PRES   REMARKS
BURLINGTON     CLOUDY    31  19  61 NW17G23   29.65R WCI  19
MONTPELIER     CLOUDY    29  19  66 NW10      29.61R WCI  20
LYNDONVILLE*   FLURRIES  27  22  83 W10G16    29.55F WCI  17
MIDDLEBURY*    CLOUDY    32  22  66 CALM      29.65R
RUTLAND*       CLOUDY    32  21  64 W12       29.64R WCI  23
SPRINGFIELD    CLOUDY    33  19  56 NW13G21   29.63R WCI  24
HIGHGATE*      CLOUDY    28  21  74 NW8       29.65R WCI  20
NEWPORT*       LGT SNOW  25  23  91 W7        29.58R VSB 1   WCI  18
BENNINGTON     PTCLDY    32  25  75 SW6       29.66R WCI  26
ISLAND POND*     N/A     25 N/A N/A NW8         N/A  WCI  16
GALLUP MILLS*    N/A     25 N/A N/A MISG        N/A
UNION VILLAGE*   N/A     32 N/A N/A MISG        N/A

_____LAKE CHAMPLAIN_____


CITY           SKY/WX    TMP DP  RH WIND       PRES   REMARKS
BURTON ISLAND*   N/A     32  27  80 NW17        N/A  WCI  21
COLCHESTER RF*   N/A     32  25  74 NW22G30     N/A  WCI  19
DIAMOND ISL*     N/A     34  23  64 SW5G13      N/A  WCI  30

$$

NYZ007-026>031-035-052-083-087-200500-
_____NORTHERN NEW YORK_____


CITY           SKY/WX    TMP DP  RH WIND       PRES   REMARKS
PLATTSBURGH    CLOUDY    30  18  60 VRB5      29.63R WCI  25
SARANAC LAKE   LGT SNOW  23  20  88 VRB5      29.60R FOG     WCI  17
MASSENA        CLOUDY    28  22  78 W13       29.71R WCI  17
OGDENSBURG*    CLOUDY    29  24  81 W5        29.71R WCI  24
POTSDAM*       CLOUDY    27  27 100 W5        29.71R WCI  21
WATERTOWN      CLOUDY    31  21  66 W18G28    29.75R WCI  19
FT DRUM        MOCLDY    29  24  81 W6        29.70R WCI  22
ALBANY         CLOUDY    34  24  67 W7        29.71R WCI  28
GLENS FALLS    MOCLDY    34  21  59 W6        29.67R WCI  29

$$
NHZ002-005-011-200500-
_____NEW HAMPSHIRE_____


CITY           SKY/WX    TMP DP  RH WIND       PRES   REMARKS
LEBANON        CLOUDY    34  21  59 W7G20     29.60R WCI  28
KEENE          PTCLDY    33  21  61 SW3       29.63R
MT WASHINGTON  SNOWSHWR   7   7 100 W71G85      N/A  VSB 0   WCI -25
PLYMOUTH       CLOUDY    33  23  66 W9        29.58R WCI  25
WHITEFIELD     CLOUDY    29  22  75 W12       29.53R WCI  19

$$

_____REGIONAL QUEBEC LOCATIONS_____


CITY           SKY/WX    TMP DP  RH WIND       PRES   REMARKS
MONTREAL       MOCLDY    27  18  69 W18G25    29.64R WCI  13
QUEBEC CITY    FLURRIES  25  18  74 W22G31    29.45R WCI  10
SHERBROOKE     FLURRIES  27  21  80 W16G26    29.52R WCI  14

_____REGIONAL ONTARIO LOCATIONS_____


CITY           SKY/WX    TMP DP  RH WIND       PRES   REMARKS
OTTAWA         FLURRIES  25  19  80 NW17G24   29.70R WCI  11

______KEY______
VSB  - VISIBILITY IN MILES
WCI  - WIND CHILL INDEX
HX   - HEAT INDEX
$$
NNNN




USA.gov is the U.S. government's official web portal to all federal, state and local government web resources and services.